Hourly Weather Abidos

Today, 22 January, Friday

Time Temperature Precipitation Wind Pressure Humidity
00:00 +25°C° 0.4 mm 1 mps 757 mmHg 86%
01:00 +25°C° 0.4 mm 1 mps 757 mmHg 89%
02:00 +25°C° 0.4 mm 1 mps 756 mmHg 92%
03:00 +24°C° 0.2 mm 1 mps 756 mmHg 93%
04:00 +22°C° 0.2 mm 0 mps 757 mmHg 94%
05:00 +22°C° 0.2 mm 0 mps 757 mmHg 95%
06:00 +23°C° 0 mm 0 mps 757 mmHg 92%
07:00 +26°C° 0 mm 1 mps 758 mmHg 89%
08:00 +27°C° 0 mm 1 mps 758 mmHg 86%
09:00 +28°C° 0.4 mm 1 mps 758 mmHg 82%
10:00 +29°C° 0.4 mm 2 mps 758 mmHg 78%
11:00 +30°C° 0.4 mm 2 mps 757 mmHg 73%
12:00 +31°C° 0.1 mm 2 mps 757 mmHg 68%
13:00 +32°C° 0.1 mm 2 mps 756 mmHg 62%
14:00 +34°C° 0.1 mm 2 mps 755 mmHg 56%
15:00 +34°C° 0.1 mm 2 mps 754 mmHg 58%
16:00 +32°C° 0.1 mm 2 mps 754 mmHg 61%
17:00 +32°C° 0.1 mm 1 mps 754 mmHg 64%
18:00 +30°C° 0.3 mm 1 mps 755 mmHg 71%
19:00 +28°C° 0.3 mm 2 mps 755 mmHg 79%
20:00 +27°C° 0.3 mm 2 mps 756 mmHg 86%
21:00 +26°C° 0 mm 2 mps 756 mmHg 86%
22:00 +26°C° 0 mm 2 mps 757 mmHg 86%
23:00 +26°C° 0 mm 2 mps 757 mmHg 86%

Tomorrow, 23 January, Saturday

Time Temperature Precipitation Wind Pressure Humidity
00:00 +26°C° 0 mm 1 mps 757 mmHg 87%
01:00 +25°C° 0 mm 1 mps 756 mmHg 88%
02:00 +25°C° 0 mm 1 mps 756 mmHg 88%
03:00 +25°C° 0 mm 1 mps 756 mmHg 89%
04:00 +25°C° 0 mm 1 mps 756 mmHg 90%
05:00 +24°C° 0 mm 1 mps 756 mmHg 91%
06:00 +26°C° 0 mm 1 mps 757 mmHg 86%
07:00 +27°C° 0 mm 1 mps 757 mmHg 80%
08:00 +28°C° 0 mm 1 mps 758 mmHg 75%
09:00 +29°C° 0 mm 2 mps 758 mmHg 68%
10:00 +31°C° 0 mm 2 mps 758 mmHg 62%
11:00 +34°C° 0 mm 2 mps 757 mmHg 55%
12:00 +34°C° 0 mm 2 mps 756 mmHg 53%
13:00 +35°C° 0 mm 2 mps 755 mmHg 51%
14:00 +36°C° 0 mm 2 mps 754 mmHg 48%
15:00 +35°C° 0 mm 2 mps 754 mmHg 51%
16:00 +35°C° 0 mm 2 mps 753 mmHg 53%
17:00 +34°C° 0 mm 2 mps 753 mmHg 56%
18:00 +31°C° 0 mm 1 mps 753 mmHg 61%
19:00 +30°C° 0 mm 1 mps 754 mmHg 65%
20:00 +28°C° 0 mm 1 mps 755 mmHg 70%
21:00 +28°C° 0 mm 1 mps 755 mmHg 70%
22:00 +28°C° 0 mm 1 mps 756 mmHg 70%
23:00 +28°C° 0 mm 1 mps 756 mmHg 70%

Day after tomorrow, 24 January, Sunday

Time Temperature Precipitation Wind Pressure Humidity
00:00 +27°C° 0 mm 1 mps 756 mmHg 74%
01:00 +27°C° 0 mm 1 mps 755 mmHg 77%
02:00 +26°C° 0 mm 1 mps 755 mmHg 80%
03:00 +26°C° 0 mm 1 mps 755 mmHg 82%
04:00 +25°C° 0 mm 1 mps 755 mmHg 84%
05:00 +25°C° 0 mm 1 mps 756 mmHg 86%
06:00 +26°C° 0 mm 1 mps 756 mmHg 80%
07:00 +27°C° 0 mm 1 mps 757 mmHg 75%
08:00 +29°C° 0 mm 2 mps 757 mmHg 69%
09:00 +30°C° 0 mm 2 mps 757 mmHg 63%
10:00 +32°C° 0 mm 2 mps 756 mmHg 57%
11:00 +35°C° 0 mm 2 mps 756 mmHg 51%
12:00 +35°C° 0 mm 2 mps 755 mmHg 50%
13:00 +35°C° 0 mm 2 mps 754 mmHg 48%
14:00 +36°C° 0 mm 2 mps 753 mmHg 47%
15:00 +34°C° 0 mm 1 mps 752 mmHg 49%
16:00 +34°C° 0 mm 1 mps 752 mmHg 52%
17:00 +33°C° 0 mm 1 mps 752 mmHg 54%
18:00 +31°C° 0.8 mm 1 mps 753 mmHg 65%
19:00 +29°C° 0.8 mm 1 mps 753 mmHg 75%
20:00 +26°C° 0.8 mm 1 mps 754 mmHg 86%
21:00 +26°C° 0.9 mm 1 mps 755 mmHg 88%
22:00 +26°C° 0.9 mm 1 mps 755 mmHg 91%
23:00 +25°C° 0.9 mm 2 mps 756 mmHg 94%

25 January, Monday

Time Temperature Precipitation Wind Pressure Humidity
00:00 +25°C° 0.3 mm 1 mps 755 mmHg 94%
01:00 +25°C° 0.3 mm 1 mps 755 mmHg 95%
02:00 +25°C° 0.3 mm 1 mps 755 mmHg 95%
03:00 +25°C° 0 mm 1 mps 755 mmHg 95%
04:00 +24°C° 0 mm 1 mps 755 mmHg 95%
05:00 +24°C° 0 mm 1 mps 755 mmHg 95%
06:00 +25°C° 0 mm 1 mps 756 mmHg 91%
07:00 +26°C° 0 mm 1 mps 756 mmHg 87%
08:00 +27°C° 0 mm 2 mps 757 mmHg 83%
09:00 +29°C° 0 mm 2 mps 757 mmHg 73%
10:00 +31°C° 0 mm 2 mps 756 mmHg 64%
11:00 +34°C° 0 mm 2 mps 756 mmHg 54%
12:00 +35°C° 0 mm 2 mps 755 mmHg 52%
13:00 +35°C° 0 mm 1 mps 754 mmHg 49%
14:00 +35°C° 0 mm 1 mps 753 mmHg 47%
15:00 +34°C° 0 mm 1 mps 752 mmHg 52%
16:00 +33°C° 0 mm 1 mps 752 mmHg 56%
17:00 +32°C° 0 mm 1 mps 752 mmHg 61%
18:00 +30°C° 1.5 mm 1 mps 753 mmHg 71%
19:00 +28°C° 1.5 mm 1 mps 754 mmHg 82%
20:00 +26°C° 1.5 mm 1 mps 754 mmHg 92%
21:00 +26°C° 1.4 mm 1 mps 755 mmHg 93%
22:00 +26°C° 1.4 mm 1 mps 755 mmHg 94%
23:00 +24°C° 1.4 mm 0 mps 756 mmHg 94%

26 January, Tuesday

Time Temperature Precipitation Wind Pressure Humidity
00:00 +25°C° 1.4 mm 1 mps 755 mmHg 95%
01:00 +25°C° 1.4 mm 1 mps 755 mmHg 96%
02:00 +25°C° 1.4 mm 1 mps 755 mmHg 96%
03:00 +25°C° 0.3 mm 1 mps 755 mmHg 96%
04:00 +25°C° 0.3 mm 1 mps 755 mmHg 96%
05:00 +25°C° 0.3 mm 1 mps 756 mmHg 96%
06:00 +25°C° 0.1 mm 1 mps 756 mmHg 94%
07:00 +26°C° 0.1 mm 1 mps 757 mmHg 93%
08:00 +26°C° 0.1 mm 1 mps 757 mmHg 91%
09:00 +27°C° 0.1 mm 2 mps 757 mmHg 88%
10:00 +27°C° 0.1 mm 2 mps 757 mmHg 86%
11:00 +28°C° 0.1 mm 2 mps 757 mmHg 83%
12:00 +29°C° 0.6 mm 2 mps 756 mmHg 80%
13:00 +30°C° 0.6 mm 1 mps 756 mmHg 76%
14:00 +31°C° 0.6 mm 1 mps 755 mmHg 72%
15:00 +30°C° 0.1 mm 1 mps 754 mmHg 72%
16:00 +30°C° 0.1 mm 1 mps 754 mmHg 73%
17:00 +28°C° 0.1 mm 0 mps 754 mmHg 74%
18:00 +27°C° 0.3 mm 0 mps 755 mmHg 78%
19:00 +26°C° 0.3 mm 0 mps 755 mmHg 83%
20:00 +24°C° 0.3 mm 0 mps 756 mmHg 87%
21:00 +24°C° 0 mm 0 mps 756 mmHg 87%
22:00 +24°C° 0 mm 0 mps 756 mmHg 87%
23:00 +24°C° 0 mm 0 mps 757 mmHg 88%

27 January, Wednesday

Time Temperature Precipitation Wind Pressure Humidity
00:00 +23°C° 0.3 mm 0 mps 756 mmHg 90%
01:00 +23°C° 0.3 mm 0 mps 756 mmHg 91%
02:00 +23°C° 0.3 mm 0 mps 755 mmHg 93%
03:00 +22°C° 0.2 mm 0 mps 756 mmHg 94%
04:00 +22°C° 0.2 mm 0 mps 756 mmHg 94%
05:00 +22°C° 0.2 mm 0 mps 756 mmHg 95%
06:00 +23°C° 0 mm 0 mps 756 mmHg 92%
07:00 +24°C° 0 mm 0 mps 757 mmHg 90%
08:00 +25°C° 0 mm 0 mps 757 mmHg 87%
09:00 +29°C° 0.1 mm 1 mps 757 mmHg 77%
10:00 +31°C° 0.1 mm 1 mps 757 mmHg 67%
11:00 +33°C° 0.1 mm 1 mps 757 mmHg 57%
12:00 +32°C° 0.9 mm 1 mps 756 mmHg 64%
13:00 +31°C° 0.9 mm 2 mps 755 mmHg 72%
14:00 +31°C° 0.9 mm 2 mps 754 mmHg 80%
15:00 +30°C° 1.5 mm 1 mps 754 mmHg 83%
16:00 +30°C° 1.5 mm 1 mps 754 mmHg 85%
17:00 +29°C° 1.5 mm 1 mps 754 mmHg 87%
18:00 +28°C° 0.1 mm 1 mps 755 mmHg 88%
19:00 +28°C° 0.1 mm 1 mps 755 mmHg 90%
20:00 +25°C° 0.1 mm 0 mps 756 mmHg 91%
21:00 +27°C° 0.2 mm 1 mps 756 mmHg 91%
22:00 +26°C° 0.2 mm 1 mps 756 mmHg 92%
23:00 +26°C° 0.2 mm 1 mps 757 mmHg 92%
Show more